Stations météo

réclame
Mon MeteoGroup
Le Touquet, France (7003): Température de l'air & dewpoint: 12.01.2020 02:00:00 - 18.01.2020 02:00:00 (CET)Le Touquet, France (7003): Température de l'air 5cm: 12.01.2020 02:00:00 - 18.01.2020 02:00:00 (CET)Le Touquet, France (7003): Vitesse du vent & gusts: 12.01.2020 02:00:00 - 18.01.2020 02:00:00 (CET)Le Touquet, France (7003): Direction du vent: 12.01.2020 02:00:00 - 18.01.2020 02:00:00 (CET)Le Touquet, France (7003): reduced air pressure: 12.01.2020 02:00:00 - 18.01.2020 02:00:00 (CET)Le Touquet, France (7003): visibility: 12.01.2020 02:00:00 - 18.01.2020 02:00:00 (CET)Le Touquet, France (7003): Ensoleillement: 12.01.2020 02:00:00 - 18.01.2020 02:00:00 (CET)Le Touquet, France (7003): Quantités de précipitations: 12.01.2020 02:00:00 - 18.01.2020 02:00:00 (CET)
Date & Time tt [°C] td [°C] tt 5cm [°C] ff [km/h] ff [knt] fx [km/h] fx [knt] dd ppp [hPa] vv [km] sd [min] rr [mm]
18.01.2020 02:00:00 4,7 3,8 2,7 5 3 28 15 SSW 1021,9 17 0 0,0
18.01.2020 01:00:00 5,2 3,7 4,4 19 10 38 20 SW 1021,7 12 0 1,8
18.01.2020 00:00:00 6,8 4,1 6,0 21 11 44 24 SW 1021,2 20 0 0,0
17.01.2020 23:00:00 7,6 4,0 6,1 22 12 45 24 WSW 1020,7 53 0 0,0
17.01.2020 22:00:00 7,2 3,4 5,7 14 7 43 23 SW 1020,5 60 0 0,0
17.01.2020 21:00:00 7,5 3,5 5,6 7 4 23 13 WSW 1020,1 20 0 0,0
17.01.2020 20:00:00 7,7 3,2 6,1 15 8 41 22 W 1019,9 54 0 0,0
17.01.2020 19:00:00 8,3 3,3 6,5 19 10 51 28 W 1019,4 49 0 0,0
17.01.2020 18:00:00 8,5 3,1 6,6 23 13 47 25 W 1018,5 56 0 0,0
17.01.2020 17:00:00 9,1 4,3 7,5 22 12 50 27 W 1017,3 20 8 0,0
17.01.2020 16:00:00 9,4 4,2 8,1 24 13 53 29 W 1016,6 19 41 0,0
17.01.2020 15:00:00 9,6 4,2 9,2 29 15 55 30 W 1015,9 18 44 0,0
17.01.2020 14:00:00 9,6 4,8 9,1 26 14 53 28 W 1015,1 19 32 0,0
17.01.2020 13:00:00 9,8 7,0 9,9 29 16 54 29 SW 1014,3 16 42 0,0
17.01.2020 12:00:00 10,0 7,2 9,9 24 13 51 27 SW 1014,1 17 0 0,0
17.01.2020 11:00:00 10,0 7,9 8,8 18 10 41 22 SW 1013,8 20 0 0,0
17.01.2020 10:00:00 9,8 8,1 8,9 19 10 39 21 SW 1013,1 50 0 0,0
17.01.2020 09:00:00 10,2 8,8 9,0 19 10 41 22 SSW 1012,5 12 0 0,2
17.01.2020 08:00:00 10,2 8,8 9,1 16 9 41 22 SSW 1012,2 17 0 0,0
17.01.2020 07:00:00 9,8 9,0 9,0 16 8 33 18 S 1012,0 58 0 0,2
17.01.2020 06:00:00 9,8 8,9 8,9 11 6 28 15 S 1012,1 15 0 1,4
17.01.2020 05:00:00 9,8 8,9 8,9 14 7 33 18 S 1012,3 13 0 1,2
17.01.2020 04:00:00 9,9 8,7 9,0 12 7 42 23 SSW 1012,6 6 0 1,6
17.01.2020 03:00:00 10,6 8,5 9,2 16 9 43 23 S 1012,9 4,3 0 0,2
17.01.2020 02:00:00 11,2 6,7 10,3 11 6 27 15 SSE 1012,7 60 0 0,0
17.01.2020 01:00:00 11,5 6,8 10,0 13 7 23 12 SSE 1013,4 60 0 0,0
17.01.2020 00:00:00 11,4 6,7 9,5 11 6 27 15 SSE 1013,7 60 0 0,0
16.01.2020 23:00:00 11,1 6,4 9,2 14 8 30 16 SSE 1014,2 60 0 0,0
16.01.2020 22:00:00 11,3 6,2 9,8 18 10 41 22 SSE 1014,3 60 0 0,0
16.01.2020 21:00:00 11,6 6,5 9,7 22 12 39 21 SSE 1014,5 59 0 0,0
16.01.2020 20:00:00 11,2 6,7 9,6 18 10 33 18 SSE 1014,8 59 0 0,0
16.01.2020 19:00:00 11,7 6,8 9,6 18 10 39 21 SSE 1015,0 60 0 0,0
16.01.2020 18:00:00 11,5 7,0 9,7 18 10 40 22 SSE 1015,2 60 0 0,0
16.01.2020 17:00:00 11,8 7,3 10,1 18 10 42 23 SSE 1015,4 59 20 0,0
16.01.2020 16:00:00 12,0 7,7 11,0 23 12 45 25 SSE 1016,2 42 47 0,0
16.01.2020 15:00:00 11,9 7,6 11,3 23 12 50 27 S 1016,9 32 48 0,0
16.01.2020 14:00:00 11,0 7,7 11,3 23 12 48 26 SSE 1018,0 20 57 0,0
16.01.2020 13:00:00 9,8 7,6 9,2 21 11 42 23 SSE 1019,4 29 39 0,0
16.01.2020 12:00:00 8,6 6,7 8,8 21 11 37 20 SSE 1020,8 20 54 0,0
16.01.2020 11:00:00 7,9 6,2 4,5 15 8 31 17 SSE 1021,2 35 51 0,0
16.01.2020 10:00:00 5,8 4,4 3,9 15 8 28 15 SSE 1021,7 20 7 0,0
16.01.2020 09:00:00 5,4 4,4 3,4 15 8 29 15 SSE 1022,0 38 0 0,0
16.01.2020 08:00:00 5,1 4,2 2,1 13 7 21 12 SSE 1022,4 29 0 0,0
16.01.2020 07:00:00 5,0 4,0 2,4 12 7 22 12 SSE 1022,8 34 0 0,0
16.01.2020 06:00:00 4,5 3,6 2,1 11 6 19 10 SSE 1022,8 38 0 0,0
16.01.2020 05:00:00 4,5 3,5 0,2 11 6 18 10 SSE 1023,3 44 0 0,0
16.01.2020 04:00:00 4,1 3,2 -0,3 6 3 21 11 SSE 1023,0 38 0 0,0
16.01.2020 03:00:00 4,8 4,1 1,6 10 5 18 10 S 1023,0 19 0 0,0
16.01.2020 02:00:00 5,2 4,5 2,5 9 5 16 9 S 1022,5 20 0 0,0
16.01.2020 01:00:00 5,8 4,8 3,6 9 5 20 11 SSE 1022,6 17 0 0,0
16.01.2020 00:00:00 7,7 6,5 5,9 9 5 25 14 SSW 1022,1 18 0 0,0
15.01.2020 23:00:00 8,4 7,0 6,9 14 8 31 17 SW 1021,4 20 0 0,0
15.01.2020 22:00:00 8,4 7,2 6,7 11 6 29 16 SSW 1020,8 20 0 0,0
15.01.2020 21:00:00 8,4 7,2 6,8 14 7 34 19 SSW 1019,8 53 0 0,0
15.01.2020 20:00:00 8,6 7,5 7,1 16 9 34 18 SW 1018,9 47 0 0,0
15.01.2020 19:00:00 8,6 7,2 5,6 13 7 29 16 SW 1017,7 60 0 0,0
15.01.2020 18:00:00 7,7 6,5 6,0 9 5 22 12 SSW 1016,3 51 0 0,0
15.01.2020 17:00:00 8,2 6,3 6,8 8 5 18 10 SW 1014,9 53 52 0,0
15.01.2020 16:00:00 8,7 6,5 7,7 9 5 19 10 WSW 1013,2 46 40 0,0
15.01.2020 15:00:00 7,9 6,8 7,7 9 5 32 17 WNW 1011,7 12 0 0,6
15.01.2020 14:00:00 7,9 7,0 7,6 12 6 40 22 NW 1010,3 9 0 1,0
15.01.2020 13:00:00 10,1 7,9 8,8 20 11 50 27 WSW 1008,9 9 0 1,0
15.01.2020 12:00:00 11,6 6,5 8,7 25 14 56 30 S 1007,3 19 0 0,2
15.01.2020 11:00:00 11,4 6,3 8,7 24 13 56 30 S 1006,5 19 0 0,2
15.01.2020 10:00:00 12,0 5,2 10,5 24 13 50 27 S 1005,7 54 0 0,0
15.01.2020 09:00:00 12,3 5,2 10,2 25 14 50 27 S 1005,5 60 0 0,0
15.01.2020 08:00:00 11,5 5,1 10,2 20 11 54 29 S 1005,3 60 0 0,0
15.01.2020 07:00:00 12,3 5,5 10,9 28 15 52 28 S 1005,1 60 0 0,0
15.01.2020 06:00:00 12,1 5,7 10,8 23 13 51 28 S 1005,1 60 0 0,0
15.01.2020 05:00:00 12,6 6,0 11,6 26 14 61 33 S 1005,1 60 0 0,0
15.01.2020 04:00:00 12,8 6,4 11,9 28 15 67 36 S 1005,2 60 0 0,0
15.01.2020 03:00:00 13,1 6,4 12,1 29 16 80 43 SSW 1005,1 59 0 0,0
15.01.2020 02:00:00 13,5 6,8 11,7 29 16 61 33 S 1005,1 52 0 0,0
15.01.2020 01:00:00 12,7 7,8 11,1 27 14 71 38 SSW 1005,4 48 0 0,0
15.01.2020 00:00:00 12,5 8,4 10,4 26 14 59 32 SSW 1005,3 19 0 0,0
14.01.2020 23:00:00 12,0 9,4 10,4 27 14 64 35 SSW 1004,8 49 0 0,2
14.01.2020 22:00:00 11,8 10,0 10,6 28 15 61 33 SSW 1004,8 16 0 1,0
14.01.2020 21:00:00 12,5 9,5 10,9 30 16 66 36 SSW 1004,2 19 0 0,0
14.01.2020 20:00:00 12,6 9,8 11,1 31 17 68 37 SSW 1003,8 44 0 0,0
14.01.2020 19:00:00 12,8 9,8 11,8 30 16 66 36 SSW 1003,1 59 0 0,0
14.01.2020 18:00:00 13,0 9,4 11,3 29 16 66 36 SSW 1002,7 57 0 0,0
14.01.2020 17:00:00 13,1 9,5 12,3 33 18 67 36 SSW 1002,2 55 0 0,0
14.01.2020 16:00:00 13,1 9,9 11,5 33 18 71 38 SSW 1001,8 20 0 0,0
14.01.2020 15:00:00 12,7 9,9 11,1 29 16 71 38 SSW 1001,6 58 0 0,0
14.01.2020 14:00:00 12,2 10,3 10,7 28 15 63 34 S 1001,7 35 0 0,0
14.01.2020 13:00:00 10,8 10,3 10,2 16 9 33 18 S 1002,2 60 0 0,8
14.01.2020 12:00:00 10,2 9,9 9,8 13 7 36 19 S 1003,2 6 0 0,4
14.01.2020 11:00:00 10,1 9,6 9,4 16 9 35 19 S 1003,6 18 0 0,4
14.01.2020 10:00:00 9,6 9,1 8,2 18 10 37 20 S 1003,5 4,9 0 0,0
14.01.2020 09:00:00 8,6 8,2 8,0 13 7 32 17 S 1003,6 20 0 0,2
14.01.2020 08:00:00 8,4 8,0 7,8 15 8 39 21 SSW 1003,5 7 0 2,3
14.01.2020 07:00:00 8,4 8,0 8,0 14 8 31 17 SSW 1003,2 1,8 0 1,8
14.01.2020 06:00:00 8,6 8,2 8,1 12 7 37 20 SW 1002,6 2,8 0 1,8
14.01.2020 05:00:00 8,9 8,3 8,5 17 9 64 34 W 1002,2 4,1 0 2,0
14.01.2020 04:00:00 11,4 8,3 9,4 28 15 66 35 SSW 1000,9 19 0 0,0
14.01.2020 03:00:00 10,8 8,4 9,2 27 15 66 36 SSW 1001,2 18 0 0,4
14.01.2020 02:00:00 10,8 8,7 9,5 31 17 66 35 S 1001,4 13 0 0,6
14.01.2020 01:00:00 11,6 8,3 9,9 29 16 61 33 SSW 1002,1 31 0 0,0
14.01.2020 00:00:00 11,7 8,2 9,7 29 16 64 35 S 1002,6 52 0 0,0
13.01.2020 23:00:00 11,6 8,1 10,1 32 17 71 38 SSW 1003,2 31 0 0,0
13.01.2020 22:00:00 11,5 8,0 10,3 29 15 76 41 S 1003,6 60 0 0,0
13.01.2020 21:00:00 11,3 7,6 9,8 24 13 58 32 S 1004,6 60 0 0,0
13.01.2020 20:00:00 11,2 7,9 9,1 24 13 54 29 S 1005,5 60 0 0,0
13.01.2020 19:00:00 10,6 8,2 8,8 25 13 56 30 S 1006,3 60 0 0,0
13.01.2020 18:00:00 9,5 8,6 8,5 16 8 39 21 S 1007,0 3,8 0 0,4
13.01.2020 17:00:00 9,3 8,2 8,5 21 11 35 19 SSE 1007,9 59 0 0,0
13.01.2020 16:00:00 9,1 8,2 8,4 15 8 42 23 S 1009,5 52 3 0,0
13.01.2020 15:00:00 8,5 7,9 8,0 15 8 31 17 S 1011,0 19 0 0,4
13.01.2020 14:00:00 8,6 7,4 8,0 16 9 34 18 S 1012,4 4,2 0 0,0
13.01.2020 13:00:00 8,4 6,7 8,1 15 8 29 16 S 1013,6 46 0 0,0
13.01.2020 12:00:00 7,6 5,7 7,6 16 9 37 20 S 1015,3 40 48 0,0
13.01.2020 11:00:00 6,4 5,5 4,5 12 6 22 12 SSE 1016,8 17 49 0,0
13.01.2020 10:00:00 5,2 4,8 2,2 9 5 21 11 SSE 1018,1 10 27 0,0
13.01.2020 09:00:00 4,4 4,1 0,6 9 5 16 9 SSE 1018,3 7 0 0,0
13.01.2020 08:00:00 4,3 3,6 1,8 9 5 19 11 SSE 1018,4 11 0 0,0
13.01.2020 07:00:00 5,0 4,0 2,9 10 5 22 12 S 1018,9 18 0 0,0
13.01.2020 06:00:00 5,6 4,7 3,0 9 5 17 9 SSE 1019,6 15 0 0,0
13.01.2020 05:00:00 7,2 5,8 5,6 11 6 27 15 S 1020,3 13 0 0,0
13.01.2020 04:00:00 7,8 6,6 6,5 10 6 25 13 SSW 1021,2 11 0 0,0
13.01.2020 03:00:00 8,1 7,0 6,8 14 7 32 17 SSW 1021,8 12 0 0,0
13.01.2020 02:00:00 8,2 7,3 6,9 14 8 33 18 SW 1022,3 10 0 0,0
13.01.2020 01:00:00 8,4 7,5 7,0 16 9 36 20 SW 1022,8 10 0 2,2
13.01.2020 00:00:00 8,7 7,9 6,8 13 7 37 20 SW 1023,0 9 0 0,8
12.01.2020 23:00:00 8,9 7,8 8,1 15 8 33 18 WSW 1023,1 8 0 0,0
12.01.2020 22:00:00 9,1 8,0 8,0 13 7 25 14 SW 1023,2 9 0 0,0
12.01.2020 21:00:00 9,2 7,6 7,6 10 5 27 15 WSW 1023,1 11 0 0,0
12.01.2020 20:00:00 9,4 7,2 7,2 14 7 26 14 W 1023,2 13 0 0,0
12.01.2020 19:00:00 9,6 6,9 7,6 16 9 32 18 W 1023,1 15 0 0,0
12.01.2020 18:00:00 9,6 7,0 7,8 14 8 32 17 WSW 1022,7 14 0 0,0
12.01.2020 17:00:00 10,4 7,8 9,2 16 9 41 22 W 1022,2 12 27 0,0
12.01.2020 16:00:00 10,9 8,3 10,0 16 9 51 28 WSW 1021,7 11 44 0,0
12.01.2020 15:00:00 11,3 8,5 11,6 22 12 50 27 W 1021,1 11 39 0,0
12.01.2020 14:00:00 11,0 9,3 11,2 27 15 55 30 WSW 1020,9 11 43 0,0
12.01.2020 13:00:00 11,0 9,1 10,5 27 15 54 29 WSW 1021,2 12 33 0,0
12.01.2020 12:00:00 10,5 9,1 9,9 27 15 67 36 WSW 1021,4 12 1 0,0
12.01.2020 11:00:00 10,3 8,9 8,4 30 16 55 30 WSW 1021,1 13 0 0,0
12.01.2020 10:00:00 9,0 7,9 7,5 19 10 41 22 SW 1020,8 11 0 0,0
12.01.2020 09:00:00 7,9 7,3 7,2 21 11 51 27 SSW 1020,6 5 0 0,4
12.01.2020 08:00:00 7,9 6,8 7,2 22 12 43 23 SSW 1020,8 8 0 0,2
12.01.2020 07:00:00 8,7 5,6 7,6 24 13 53 29 SSW 1021,3 20 0 0,0
12.01.2020 06:00:00 8,4 5,1 7,6 20 11 47 25 SSW 1021,5 20 0 0,0
12.01.2020 05:00:00 8,0 5,1 5,6 14 8 28 15 S 1022,3 19 0 0,0
12.01.2020 04:00:00 6,8 3,9 5,5 12 6 29 16 S 1023,1 51 0 0,0
12.01.2020 03:00:00 7,8 4,4 6,4 14 8 37 20 S 1023,6 43 0 0,0
12.01.2020 02:00:00 8,0 4,2 6,6 13 7 29 16 S 1024,0 42 0 0,0

tt = Température de l'air
td = dewpoint
tt 5cm = Température de l'air 5cm
ff = Vitesse du vent
fx = gusts
dd = Direction du vent
ppp = reduced air pressure
vv = visibility
sd = Ensoleillement
rr = Quantités de précipitations

stations d'obs. à proximité